﻿測定場所 (Monitoring sites),日付 (Measurement date),時間 (Measurement time),線量率 最大値 (max) μGy/h,線量率 最小値 (min) μGy/h,線量率 平均値 (average) μGy/h,
江戸川 (Edogawa),2018-11-25,23:01～24:00,0.0505,0.0446,0.0473,
江戸川 (Edogawa),2018-11-25,22:01～23:00,0.0496,0.0429,0.0471,
江戸川 (Edogawa),2018-11-25,21:01～22:00,0.0503,0.0442,0.0469,
江戸川 (Edogawa),2018-11-25,20:01～21:00,0.0495,0.0437,0.0468,
江戸川 (Edogawa),2018-11-25,19:01～20:00,0.0501,0.0438,0.0469,
江戸川 (Edogawa),2018-11-25,18:01～19:00,0.0525,0.0441,0.0467,
江戸川 (Edogawa),2018-11-25,17:01～18:00,0.0508,0.0438,0.0468,
江戸川 (Edogawa),2018-11-25,16:01～17:00,0.0498,0.0426,0.0466,
江戸川 (Edogawa),2018-11-25,15:01～16:00,0.0495,0.0431,0.0465,
江戸川 (Edogawa),2018-11-25,14:01～15:00,0.0504,0.0449,0.0470,
江戸川 (Edogawa),2018-11-25,13:01～14:00,0.0501,0.0447,0.0476,
江戸川 (Edogawa),2018-11-25,12:01～13:00,0.0494,0.0438,0.0472,
江戸川 (Edogawa),2018-11-25,11:01～12:00,0.0512,0.0437,0.0471,
江戸川 (Edogawa),2018-11-25,10:01～11:00,0.0503,0.0444,0.0472,
江戸川 (Edogawa),2018-11-25,09:01～10:00,0.0509,0.0438,0.0474,
江戸川 (Edogawa),2018-11-25,08:01～09:00,0.0504,0.0446,0.0477,
江戸川 (Edogawa),2018-11-25,07:01～08:00,0.0508,0.0455,0.0476,
江戸川 (Edogawa),2018-11-25,06:01～07:00,0.0515,0.0446,0.0477,
江戸川 (Edogawa),2018-11-25,05:01～06:00,0.0512,0.0442,0.0475,
江戸川 (Edogawa),2018-11-25,04:01～05:00,0.0510,0.0450,0.0478,
江戸川 (Edogawa),2018-11-25,03:01～04:00,0.0522,0.0444,0.0478,
江戸川 (Edogawa),2018-11-25,02:01～03:00,0.0508,0.0450,0.0474,
江戸川 (Edogawa),2018-11-25,01:01～02:00,0.0505,0.0433,0.0473,
江戸川 (Edogawa),2018-11-25,00:01～01:00,0.0501,0.0436,0.0466,
江戸川 (Edogawa),2018-11-24,23:01～24:00,0.0505,0.0441,0.0465,
江戸川 (Edogawa),2018-11-24,22:01～23:00,0.0491,0.0432,0.0462,
江戸川 (Edogawa),2018-11-24,21:01～22:00,0.0510,0.0435,0.0462,
江戸川 (Edogawa),2018-11-24,20:01～21:00,0.0492,0.0439,0.0461,
江戸川 (Edogawa),2018-11-24,19:01～20:00,0.0495,0.0424,0.0465,
江戸川 (Edogawa),2018-11-24,18:01～19:00,0.0495,0.0425,0.0463,
江戸川 (Edogawa),2018-11-24,17:01～18:00,0.0495,0.0433,0.0462,
江戸川 (Edogawa),2018-11-24,16:01～17:00,0.0495,0.0431,0.0460,
江戸川 (Edogawa),2018-11-24,15:01～16:00,0.0497,0.0438,0.0464,
江戸川 (Edogawa),2018-11-24,14:01～15:00,0.0489,0.0437,0.0464,
江戸川 (Edogawa),2018-11-24,13:01～14:00,0.0499,0.0429,0.0466,
江戸川 (Edogawa),2018-11-24,12:01～13:00,0.0530,0.0442,0.0469,
江戸川 (Edogawa),2018-11-24,11:01～12:00,0.0505,0.0440,0.0469,
江戸川 (Edogawa),2018-11-24,10:01～11:00,0.0501,0.0442,0.0470,
江戸川 (Edogawa),2018-11-24,09:01～10:00,0.0502,0.0432,0.0471,
江戸川 (Edogawa),2018-11-24,08:01～09:00,0.0513,0.0447,0.0469,
江戸川 (Edogawa),2018-11-24,07:01～08:00,0.0502,0.0446,0.0470,
江戸川 (Edogawa),2018-11-24,06:01～07:00,0.0500,0.0423,0.0465,
江戸川 (Edogawa),2018-11-24,05:01～06:00,0.0496,0.0420,0.0465,
江戸川 (Edogawa),2018-11-24,04:01～05:00,0.0496,0.0436,0.0464,
江戸川 (Edogawa),2018-11-24,03:01～04:00,0.0496,0.0428,0.0463,
江戸川 (Edogawa),2018-11-24,02:01～03:00,0.0494,0.0435,0.0463,
江戸川 (Edogawa),2018-11-24,01:01～02:00,0.0509,0.0433,0.0465,
江戸川 (Edogawa),2018-11-24,00:01～01:00,0.0487,0.0432,0.0464,
江戸川 (Edogawa),2018-11-23,23:01～24:00,0.0507,0.0433,0.0463,
江戸川 (Edogawa),2018-11-23,22:01～23:00,0.0495,0.0431,0.0465,
江戸川 (Edogawa),2018-11-23,21:01～22:00,0.0511,0.0438,0.0462,
江戸川 (Edogawa),2018-11-23,20:01～21:00,0.0506,0.0430,0.0462,
江戸川 (Edogawa),2018-11-23,19:01～20:00,0.0495,0.0416,0.0465,
江戸川 (Edogawa),2018-11-23,18:01～19:00,0.0492,0.0433,0.0462,
江戸川 (Edogawa),2018-11-23,17:01～18:00,0.0495,0.0434,0.0463,
江戸川 (Edogawa),2018-11-23,16:01～17:00,0.0491,0.0426,0.0465,
江戸川 (Edogawa),2018-11-23,15:01～16:00,0.0496,0.0440,0.0470,
江戸川 (Edogawa),2018-11-23,14:01～15:00,0.0499,0.0437,0.0465,
江戸川 (Edogawa),2018-11-23,13:01～14:00,0.0512,0.0434,0.0469,
江戸川 (Edogawa),2018-11-23,12:01～13:00,0.0490,0.0430,0.0462,
江戸川 (Edogawa),2018-11-23,11:01～12:00,0.0497,0.0446,0.0468,
江戸川 (Edogawa),2018-11-23,10:01～11:00,0.0502,0.0418,0.0465,
江戸川 (Edogawa),2018-11-23,09:01～10:00,0.0507,0.0440,0.0465,
江戸川 (Edogawa),2018-11-23,08:01～09:00,0.0499,0.0432,0.0465,
江戸川 (Edogawa),2018-11-23,07:01～08:00,0.0491,0.0438,0.0462,
江戸川 (Edogawa),2018-11-23,06:01～07:00,0.0499,0.0432,0.0464,
江戸川 (Edogawa),2018-11-23,05:01～06:00,0.0493,0.0433,0.0465,
江戸川 (Edogawa),2018-11-23,04:01～05:00,0.0506,0.0422,0.0461,
江戸川 (Edogawa),2018-11-23,03:01～04:00,0.0496,0.0431,0.0461,
江戸川 (Edogawa),2018-11-23,02:01～03:00,0.0490,0.0422,0.0460,
江戸川 (Edogawa),2018-11-23,01:01～02:00,0.0508,0.0432,0.0460,
江戸川 (Edogawa),2018-11-23,00:01～01:00,0.0503,0.0436,0.0463,
江戸川 (Edogawa),2018-11-22,23:01～24:00,0.0490,0.0425,0.0463,
江戸川 (Edogawa),2018-11-22,22:01～23:00,0.0502,0.0444,0.0469,
江戸川 (Edogawa),2018-11-22,21:01～22:00,0.0507,0.0438,0.0464,
江戸川 (Edogawa),2018-11-22,20:01～21:00,0.0521,0.0434,0.0465,
江戸川 (Edogawa),2018-11-22,19:01～20:00,0.0498,0.0436,0.0466,
江戸川 (Edogawa),2018-11-22,18:01～19:00,0.0504,0.0435,0.0467,
江戸川 (Edogawa),2018-11-22,17:01～18:00,0.0498,0.0433,0.0467,
江戸川 (Edogawa),2018-11-22,16:01～17:00,0.0502,0.0435,0.0468,
江戸川 (Edogawa),2018-11-22,15:01～16:00,0.0505,0.0445,0.0474,
江戸川 (Edogawa),2018-11-22,14:01～15:00,0.0526,0.0462,0.0486,
江戸川 (Edogawa),2018-11-22,13:01～14:00,0.0545,0.0455,0.0503,
江戸川 (Edogawa),2018-11-22,12:01～13:00,0.0508,0.0451,0.0483,
江戸川 (Edogawa),2018-11-22,11:01～12:00,0.0498,0.0432,0.0471,
江戸川 (Edogawa),2018-11-22,10:01～11:00,0.0495,0.0447,0.0472,
江戸川 (Edogawa),2018-11-22,09:01～10:00,0.0522,0.0421,0.0473,
江戸川 (Edogawa),2018-11-22,08:01～09:00,0.0514,0.0448,0.0476,
江戸川 (Edogawa),2018-11-22,07:01～08:00,0.0503,0.0448,0.0477,
江戸川 (Edogawa),2018-11-22,06:01～07:00,0.0512,0.0443,0.0481,
江戸川 (Edogawa),2018-11-22,05:01～06:00,0.0544,0.0462,0.0506,
江戸川 (Edogawa),2018-11-22,04:01～05:00,0.0568,0.0493,0.0533,
江戸川 (Edogawa),2018-11-22,03:01～04:00,0.0600,0.0502,0.0538,
江戸川 (Edogawa),2018-11-22,02:01～03:00,0.0597,0.0488,0.0534,
江戸川 (Edogawa),2018-11-22,01:01～02:00,0.0607,0.0549,0.0576,
江戸川 (Edogawa),2018-11-22,00:01～01:00,0.0625,0.0499,0.0546,
江戸川 (Edogawa),2018-11-21,23:01～24:00,0.0602,0.0443,0.0539,
江戸川 (Edogawa),2018-11-21,22:01～23:00,0.0509,0.0431,0.0469,
江戸川 (Edogawa),2018-11-21,21:01～22:00,0.0499,0.0428,0.0468,
江戸川 (Edogawa),2018-11-21,20:01～21:00,0.0503,0.0431,0.0467,
江戸川 (Edogawa),2018-11-21,19:01～20:00,0.0509,0.0435,0.0464,
江戸川 (Edogawa),2018-11-21,18:01～19:00,0.0500,0.0436,0.0469,
江戸川 (Edogawa),2018-11-21,17:01～18:00,0.0503,0.0427,0.0466,
江戸川 (Edogawa),2018-11-21,16:01～17:00,0.0499,0.0434,0.0465,
江戸川 (Edogawa),2018-11-21,15:01～16:00,0.0504,0.0445,0.0473,
江戸川 (Edogawa),2018-11-21,14:01～15:00,0.0495,0.0433,0.0472,
江戸川 (Edogawa),2018-11-21,13:01～14:00,0.0499,0.0446,0.0473,
江戸川 (Edogawa),2018-11-21,12:01～13:00,0.0512,0.0435,0.0475,
江戸川 (Edogawa),2018-11-21,11:01～12:00,0.0499,0.0442,0.0474,
江戸川 (Edogawa),2018-11-21,10:01～11:00,0.0511,0.0453,0.0477,
江戸川 (Edogawa),2018-11-21,09:01～10:00,0.0495,0.0439,0.0472,
江戸川 (Edogawa),2018-11-21,08:01～09:00,0.0503,0.0425,0.0474,
江戸川 (Edogawa),2018-11-21,07:01～08:00,0.0527,0.0448,0.0471,
江戸川 (Edogawa),2018-11-21,06:01～07:00,0.0511,0.0444,0.0470,
江戸川 (Edogawa),2018-11-21,05:01～06:00,0.0499,0.0459,0.0477,
江戸川 (Edogawa),2018-11-21,04:01～05:00,0.0498,0.0441,0.0467,
江戸川 (Edogawa),2018-11-21,03:01～04:00,0.0490,0.0432,0.0466,
江戸川 (Edogawa),2018-11-21,02:01～03:00,0.0501,0.0442,0.0466,
江戸川 (Edogawa),2018-11-21,01:01～02:00,0.0496,0.0432,0.0462,
江戸川 (Edogawa),2018-11-21,00:01～01:00,0.0489,0.0429,0.0463,
江戸川 (Edogawa),2018-11-20,23:01～24:00,0.0488,0.0437,0.0463,
江戸川 (Edogawa),2018-11-20,22:01～23:00,0.0495,0.0426,0.0463,
江戸川 (Edogawa),2018-11-20,21:01～22:00,0.0493,0.0433,0.0463,
江戸川 (Edogawa),2018-11-20,20:01～21:00,0.0491,0.0420,0.0461,
江戸川 (Edogawa),2018-11-20,19:01～20:00,0.0497,0.0426,0.0462,
江戸川 (Edogawa),2018-11-20,18:01～19:00,0.0493,0.0434,0.0461,
江戸川 (Edogawa),2018-11-20,17:01～18:00,0.0522,0.0438,0.0464,
江戸川 (Edogawa),2018-11-20,16:01～17:00,0.0484,0.0438,0.0464,
江戸川 (Edogawa),2018-11-20,15:01～16:00,0.0494,0.0436,0.0464,
江戸川 (Edogawa),2018-11-20,14:01～15:00,0.0505,0.0437,0.0465,
江戸川 (Edogawa),2018-11-20,13:01～14:00,0.0497,0.0438,0.0470,
江戸川 (Edogawa),2018-11-20,12:01～13:00,0.0503,0.0440,0.0470,
江戸川 (Edogawa),2018-11-20,11:01～12:00,0.0489,0.0428,0.0462,
江戸川 (Edogawa),2018-11-20,10:01～11:00,0.0490,0.0430,0.0467,
江戸川 (Edogawa),2018-11-20,09:01～10:00,0.0493,0.0437,0.0460,
江戸川 (Edogawa),2018-11-20,08:01～09:00,0.0488,0.0428,0.0461,
江戸川 (Edogawa),2018-11-20,07:01～08:00,0.0496,0.0431,0.0463,
江戸川 (Edogawa),2018-11-20,06:01～07:00,0.0501,0.0441,0.0466,
江戸川 (Edogawa),2018-11-20,05:01～06:00,0.0523,0.0464,0.0488,
江戸川 (Edogawa),2018-11-20,04:01～05:00,0.0514,0.0446,0.0473,
江戸川 (Edogawa),2018-11-20,03:01～04:00,0.0515,0.0437,0.0477,
江戸川 (Edogawa),2018-11-20,02:01～03:00,0.0535,0.0460,0.0492,
江戸川 (Edogawa),2018-11-20,01:01～02:00,0.0550,0.0478,0.0514,
江戸川 (Edogawa),2018-11-20,00:01～01:00,0.0631,0.0492,0.0547,
江戸川 (Edogawa),2018-11-19,23:01～24:00,0.0734,0.0584,0.0671,
江戸川 (Edogawa),2018-11-19,22:01～23:00,0.0803,0.0685,0.0735,
江戸川 (Edogawa),2018-11-19,21:01～22:00,0.0725,0.0545,0.0626,
江戸川 (Edogawa),2018-11-19,20:01～21:00,0.0649,0.0548,0.0590,
江戸川 (Edogawa),2018-11-19,19:01～20:00,0.0562,0.0472,0.0519,
江戸川 (Edogawa),2018-11-19,18:01～19:00,0.0535,0.0460,0.0504,
江戸川 (Edogawa),2018-11-19,17:01～18:00,0.0583,0.0488,0.0537,
江戸川 (Edogawa),2018-11-19,16:01～17:00,0.0567,0.0458,0.0497,
江戸川 (Edogawa),2018-11-19,15:01～16:00,0.0514,0.0445,0.0477,
江戸川 (Edogawa),2018-11-19,14:01～15:00,0.0520,0.0449,0.0482,
江戸川 (Edogawa),2018-11-19,13:01～14:00,0.0503,0.0456,0.0479,
江戸川 (Edogawa),2018-11-19,12:01～13:00,0.0509,0.0452,0.0479,
江戸川 (Edogawa),2018-11-19,11:01～12:00,0.0502,0.0440,0.0474,
江戸川 (Edogawa),2018-11-19,10:01～11:00,0.0500,0.0445,0.0471,
江戸川 (Edogawa),2018-11-19,09:01～10:00,0.0522,0.0435,0.0478,
江戸川 (Edogawa),2018-11-19,08:01～09:00,0.0501,0.0441,0.0473,
江戸川 (Edogawa),2018-11-19,07:01～08:00,0.0506,0.0444,0.0471,
江戸川 (Edogawa),2018-11-19,06:01～07:00,0.0502,0.0431,0.0473,
江戸川 (Edogawa),2018-11-19,05:01～06:00,0.0508,0.0439,0.0476,
江戸川 (Edogawa),2018-11-19,04:01～05:00,0.0520,0.0452,0.0480,
江戸川 (Edogawa),2018-11-19,03:01～04:00,0.0527,0.0450,0.0487,
江戸川 (Edogawa),2018-11-19,02:01～03:00,0.0543,0.0470,0.0509,
江戸川 (Edogawa),2018-11-19,01:01～02:00,0.0550,0.0482,0.0517,
江戸川 (Edogawa),2018-11-19,00:01～01:00,0.0530,0.0465,0.0496,
